Please be sure to check the latest weather conditions by clicking the link and viewing our local weather information!

Check Weather

Welcome to Lakeway Airpark (3R9)

FromTheAir

We’re a community airpark nestled within the town of Lakeway, Texas (17 miles northwest of downtown Austin).

Lakeway Airpark, Inc. was formed by Lakeway residents and interested parties to own and manage Lakeway Airpark (3R9).

The Airpark is a privately owned not for profit public use airport for residents and guests of Lakeway. No public funds are used and the airport is supported by fees and fuel sales at the airport.

Lakeway Airpark is an unmanned facility open for use from Sunrise to Sunset seven days a week. Takeoffs and landings are not permitted at night, between Sunset and Sunrise, by City Ordinance.

Quick Weather Info

Available data for KAUS from the past 2 hours
AUSTIN, TX
Metar
KAUS 151853Z 36008KT 10SM BKN200 13/00 A3028 RMK AO2 SLP254 T01330000

18:53 UTC

Wind: 360° 8kt

Visibility: 10 SM

Sky: BKN 20000 ft

Temp: 13 deg C / 55.4 deg F

Dewpoint: 0 deg C / 32 deg F

Pressure: 30.28 inHg

TAF
KAUS 151740Z 1518/1624 01010KT P6SM SCT150 BKN200 FM160000 VRB02KT P6SM BKN200 FM161800 16006KT 5SM -RA OVC020 FM162000 15006KT 2SM RA OVC006